    Orbital elements:
    2017 SO17                                                Earth MOID = 0.1398 AU
    Epoch 2019 Apr. 27.0 TT = JDT 2458600.5                 MPC
    M 118.06810              (2000.0)            P               Q
    n   0.22698540     Peri.    9.16894     +0.42941813     -0.85877182
    a   2.6615672      Node    55.89071     +0.80571694     +0.22451164
    e   0.5776857      Incl.   19.72786     +0.40794642     +0.46054911
    P   4.34           H   18.8           G   0.15           U   0
    Residuals in seconds of arc
    140324 F51  0.0   0.7+    171108 Z80  0.1+  0.1-    171130 C95  0.1-  0.3+
    140324 F51  0.3+  0.1-    171108 Z80  0.1+  0.1+    171130 P93  0.2+  0.2+
    140324 F51  0.1-  0.2+    171108 Z80  0.1+  0.1+    171130 P93  0.5+  0.2-
    140410 F51  0.1+  0.9-    171108 Z80  0.2+  0.2+    171130 P93  0.2+  0.2-
    140410 F51  0.3+  0.7+    171108 Z80  0.1-  0.2+    171130 P93  0.4+  0.0
    140410 F51  0.0   0.0     171108 Z80  0.5-  0.6-    171201 H21  0.1-  0.1+
    140410 F51  0.1-  0.3-    171108 Z80  0.2-  0.5+    171201 H21  0.2-  0.1+
    140519 F51  0.2-  0.3+    171108 Z80  0.1-  0.5-    171201 H21  0.2-  0.1+
    140519 F51  0.3-  0.1-    171108 Z80  0.0   0.4-    171201 H21  0.2-  0.0
    140519 F51  0.5+  0.0     171109 H21  0.1+  0.1+    171201 H21  0.2-  0.0
    170809 F51  0.6-  0.0     171109 H21  0.2+  0.1+    171201 H21  0.1-  0.0
    170809 F51  0.0   0.2+    171109 H21  0.2+  0.0     171204 T05  0.1+  0.4+
    170809 F51  0.2+  0.1+    171109 H21  0.0   0.1+    171204 T05  0.1+  0.2-
    170809 F51  0.0   0.2+    171109 H21  0.1+  0.0     171204 T05  0.0   0.0
    170809 F51  0.1+  0.0     171109 H21  0.2+  0.2+    171204 T05  0.1-  0.1-
    170809 F51  0.1-  0.2+    171109 H21  0.1+  0.1+    171205 A13  0.2-  0.0
    170809 F51  0.1-  0.1-    171109 H21  0.1+  0.2+    171205 A13  0.1-  0.0
    170925 703  0.1-  0.4-    171109 H21  0.2+  0.1+    171205 A13  0.4-  0.1-
    170925 703  0.5+  0.1-    171109 H21  0.2+  0.2+    171205 A13  0.2-  0.1-
    170925 703  0.6-  0.4-    171109 H21  0.1+  0.2+    171206 H21  0.2-  0.2-
    170925 703  0.3-  0.5-    171109 H21  0.3+  0.1+    171206 H21  0.0   0.0
    170925 703  0.2-  0.4-    171109 H21  0.2+  0.2+    171206 H21  0.1-  0.1-
    170925 I52  0.0   0.1-    171109 H21  0.2+  0.1+    171206 H21  0.0   0.0
    170925 I52  0.1-  0.1+    171110 204  0.1+  0.1-    171206 H21  0.2-  0.1-
    170925 I52  0.3-  0.1-    171110 204  0.0   0.1+    171206 H21  0.2-  0.2-
    170925 T05  0.1-  0.1+    171110 204  0.1+  0.1-    171206 H21  0.3-  0.1-
    170925 T05  0.3-  0.4+    171110 G48  1.3+  0.1+    171206 H21  0.0   0.2+
    170925 T05  0.3+  0.3-    171110 G48  0.4+  0.2-    171207 703  0.1-  0.1-
    170925 T05  1.1+  0.8-    171110 G48  0.1-  0.2-    171207 703  0.1-  0.0
    170926 I52  0.1-  0.4-    171110 G48  0.4-  0.1+    171207 703  0.4-  0.0
    170926 I52  0.2-  0.5-    171110 G48  0.4-  0.5+    171207 703  0.1-  0.2-
    170926 I52  0.3+  0.4-    171110 G48  0.2+  0.0     171208 H36  0.1+  0.2-
    170926 I52  0.2-  0.0     171110 G48  0.0   0.1+    171208 H36  0.4+  0.5+
    170926 F51  0.0   0.2+    171110 G48  0.5-  0.0     171208 H36  0.0   0.3-
    170926 F51  0.1-  0.2+    171110 H21  0.3-  0.2-    171208 H36  0.1-  0.1-
    170926 F51  0.1-  0.2+    171110 H21  0.2-  0.2-    171208 H21  0.1-  0.1-
    170926 F51  0.1-  0.2+    171110 H21  0.2-  0.2-    171208 H21  0.1-  0.1-
    170927 I52  0.2-  0.2+    171110 H21  0.3-  0.2-    171208 H21  0.1-  0.0
    170927 I52  0.4-  0.2-    171110 H21  0.1-  0.2-    171208 H21  0.1-  0.1-
    170927 I52  0.1-  0.3+    171110 H21  0.3-  0.2-    171208 H21  0.1-  0.0
    170927 I52  0.6-  0.1+    171110 H21  0.2-  0.1-    171208 H21  0.1-  0.1-
    170928 W25  0.1-  0.4+    171110 H21  0.2-  0.2-    171208 H21  0.1-  0.0
    170928 W25  0.4-  0.2+    171110 H21  0.3-  0.1-    171208 H21  0.1-  0.1-
    170928 I52  0.1-  0.2-    171110 T05  0.0   0.0     171208 H21  0.0   0.1-
    170928 I52  0.5+  0.1+    171110 T05  0.1-  0.0     171208 H21  0.1-  0.1-
    170928 I52  0.2-  0.1+    171110 T05  0.0   0.0     171208 H21  0.1-  0.0
    170928 I52  0.2-  0.1+    171110 T05  0.0   0.2-    171208 H21  0.0   0.1-
    171002 703  0.5-  0.8-    171113 K74  0.2-  0.2-    171213 T05  0.1-  0.4+
    171002 703  0.2-  0.2-    171113 K74  0.2-  0.2-    171213 T05  0.1-  0.6+
    171002 703  0.4-  0.2-    171113 K74  0.2-  0.1-    171213 T05  0.3-  0.2+
    171003 F51  0.1-  0.2+    171113 K74  0.4-  0.2-    171213 T05  0.0   0.0
    171003 F51  0.1-  0.2+    171113 K74  0.2-  0.1-    171213 T05  0.4-  0.3+
    171003 F51  0.1-  0.2+    171113 K74  0.2-  0.3-    171213 T05  0.1-  0.0
    171003 F51  0.1-  0.2+    171113 K74  0.2-  0.2-    171213 T05  0.4-  0.2+
    171011 703  0.1-  0.2-    171114 G96  0.1-  0.1-    171214 H45  0.4-  0.2-
    171011 703  0.3-  0.4-    171114 G96  0.1-  0.1-    171214 H45  0.4-  0.5-
    171011 703  0.4+  0.2-    171114 G96  0.1+  0.2-    171214 H45  0.2-  0.2-
    171011 703  0.2-  0.0     171114 G96  0.1+  0.1-    171214 H45  0.3-  0.0
    171011 691  0.2-  0.0     171114 T05  0.1-  0.0     171214 H45  0.3-  0.0
    171011 691  0.2-  0.0     171114 T05  0.0   0.1-    171214 H45  0.4-  0.0
    171011 691  0.2-  0.1+    171114 T05  0.0   0.1-    171223 B67  0.1+  0.2+
    171011 T05  0.4+  0.1+    171114 T05  0.2+  0.1-    171223 B67  0.2+  0.2+
    171011 T05  0.4-  0.3-    171115 P93  0.0   0.6-    171223 B67  0.1+  0.3+
    171011 T05  0.1+  0.2+    171115 P93  0.2-  0.4+    171225 H15  0.4-  0.1-
    171011 T05  0.2-  0.2-    171115 P93  0.4-  0.3-    171225 H15  0.3-  0.2-
    171013 T08  0.2+  0.2+    171116 J27  0.2-  0.0     171225 H15  0.5+  0.3+
    171013 T08  0.2-  0.7+    171116 J27  0.0   0.2-    171229 T05  0.1+  0.3-
    171013 T08  0.1-  0.1+    171116 J27  0.1+  0.2-    171229 T05  0.2-  0.1-
    171013 T08  0.3+  0.2-    171116 H15  0.3-  0.0     171229 T05  0.3+  0.2-
    171014 703  0.1-  0.0     171116 H15  0.4-  0.2-    171229 T05  0.3+  0.2-
    171014 703  0.1-  0.2+    171116 H15  0.2-  0.2+    171231 F51  0.0   0.1+
    171014 703  0.1+  0.2+    171116 A53  0.2-  0.3+    171231 F51  0.0   0.1+
    171014 703  0.1+  0.1-    171116 A53  0.2-  0.2+    171231 F51  0.0   0.1+
    171017 703  0.2+  0.0     171116 A53  0.1+  0.1+    171231 F51  0.0   0.2+
    171017 703  0.1-  0.0     171116 A53  0.0   0.5+    180108 F51  0.0   0.0
    171017 703  0.1+  0.0     171117 160  0.7-  0.4-    180108 F51  0.0   0.0
    171017 703  0.2+  0.0     171117 160  0.0   0.1-    180108 F51  0.0   0.1+
    171023 703  0.5+  0.6+    171117 160  0.2+  0.2-    180108 F51  0.0   0.1+
    171023 703  0.2-  0.2+    171117 G34  0.4+  0.5-    180113 K38  0.1-  0.3+
    171023 703  0.0   0.1+    171117 G34  1.7+  1.9-    180113 K38  0.4-  0.2+
    171023 703  0.1-  0.0     171117 G34  1.2+  0.0     180113 K38  0.1-  0.1+
    171025 H45  0.9-  0.3-    171117 069  0.7+  1.7+    180114 W34  0.2+  0.5+
    171025 H45  0.5-  0.7-    171117 069  1.1+  2.1+    180114 W34  0.0   0.1-
    171025 H45  0.1+  0.6-    171117 069  1.6+  1.6+    180114 W34  0.6+  0.4+
    171025 H45  0.2+  0.1+    171118 C27  0.2-  0.6+    180117 H45  0.3+  0.1-
    171025 H45  0.0   0.1+    171118 C27  0.1-  0.4+    180117 H45  0.0   0.4+
    171025 H45  0.1-  0.2-    171118 C27  0.0   0.3+    180117 H45  0.1-  0.1+
    171026 703  0.0   0.1+    171118 C27  0.1-  0.3+    180117 H45  0.1+  0.2+
    171026 703  0.0   0.1-    171118 C27  0.1-  0.3+    180117 H45  0.2+  0.6+
    171026 G96  0.1+  0.0     171118 I76  0.1-  0.1+    180117 H45  0.5+  0.0
    171026 703  0.1+  0.0     171118 I76  0.3-  0.1-    180121 H15  0.1-  0.0
    171026 G96  0.0   0.0     171118 I76  0.1-  0.0     180121 H15  1.1+  0.1+
    171026 703  0.2-  0.1+    171119 160  0.1+  0.1-    180121 H15  0.2-  0.1+
    171026 G96  0.0   0.0     171119 160  0.0   0.2-    180129 F51  0.1-  0.0
    171026 G96  0.1+  0.1+    171119 160  0.2-  0.2-    180129 F51  0.0   0.1+
    171028 T05  0.0   0.0     171119 H45  0.2-  0.2-    180129 F51  0.0   0.1+
    171028 T05  0.0   0.0     171119 H45  0.3-  0.3-    180129 F51  0.0   0.0
    171028 T05  0.1+  0.1-    171119 H45  0.2-  0.1-    180207 703  2.1-  0.3-
    171028 T05  0.2+  0.0     171119 H45  0.3-  0.2-    180207 703  1.0-  0.5+
    171029 703  0.2+  0.1+    171119 H45  0.1-  0.1-    180207 703  1.9-  0.6+
    171029 703  0.1-  0.1-    171119 H45  0.2-  0.2-    180207 703  1.6-  0.9-
    171029 703  0.1+  0.0     171120 160  0.0   0.0     180220 033  0.2+  0.2+
    171029 703  0.1+  0.1-    171120 160  0.3-  0.4-    180220 033  0.1+  0.1+
    171030 Z80  0.6-  0.2+    171120 160  0.2-  0.2-    180220 033  0.1+  0.2+
    171030 Z80  0.1-  0.4-    171120 J27  0.0   0.0     180220 033  0.0   0.3+
    171030 Z80  0.3-  0.5+    171120 J27  0.0   0.1-    180220 033  0.0   0.2+
    171030 Z80  0.3+  0.1+    171120 J27  0.0   0.1-    180220 033  0.0   0.1+
    171030 Z80  0.1+  0.2-    171120 P93  1.4+  0.5-    180221 033  0.1-  0.1+
    171030 Z80  0.1-  0.2-    171120 P93  3.7+  0.7-    180221 033  0.0   0.1+
    171030 H45  0.2-  0.5-    171120 P93  6.6+  0.2-    180221 033  0.1+  0.3+
    171030 H45  0.1-  0.2-    171121 703  0.2-  0.2-    180221 033  0.0   0.0
    171030 H45  0.1-  0.0     171121 703  0.1-  0.1-    180221 033  0.1+  0.1+
    171030 H45  0.1-  0.2-    171121 703  0.0   0.1-    180221 033  0.1-  0.2+
    171030 H45  0.2-  0.2-    171121 703  0.3-  0.0     180221 033  0.1+  0.2+
    171030 H45  0.2-  0.0     171125 703  0.1-  0.0     180224 033  0.1+  0.2+
    171030 H45  0.2-  0.1-    171125 703  0.1-  0.6-    180224 033  0.1+  0.0
    171030 T08  0.3+  0.2-    171125 703  0.1-  0.1-    180224 033  0.0   0.0
    171030 T08  0.1+  0.3-    171125 703  0.1-  0.1-    180224 033  0.1-  0.1-
    171030 T08  0.2-  0.3-    171125 Z80  0.0   0.5+    180227 H21  0.4+  0.1+
    171030 F51  0.1-  0.1+    171125 Z80  0.0   0.5+    180227 H21  0.4+  0.2-
    171030 F51  0.0   0.1+    171125 Z80  0.4-  0.2+    180306 G96  0.2-  0.2+
    171030 F51  0.0   0.1+    171125 Z80  0.1+  0.5+    180306 G96  0.0   0.1-
    171101 T05  0.0   0.0     171125 Z80  0.2+  0.6+    180306 G96  0.2-  0.3+
    171101 T05  0.0   0.0     171129 C95  0.3+  0.1-    180306 G96  0.7+  0.2-
    171101 T05  0.0   0.2-    171129 C95  0.1-  0.2+    180411 H21  0.3+  0.2+
    171101 T05  0.0   0.2-    171129 C95  0.0   0.1+    180411 H21  0.6+  0.3+
    171102 160  0.0   0.1-    171130 C95  0.1-  0.0     180411 H21  0.5+  0.6+
    171102 160  0.1+  0.1-    171130 C95  0.0   0.0     180418 H21  0.6-  0.8+
    171102 160  0.1-  0.1-    171130 C95  0.2-  0.1+    180418 H21  0.1+  0.2+
    171102 926  0.2+  0.1-    171130 C95  0.2+  0.1+    180418 H21  0.3+  0.8-
    171102 926  0.1+  0.0     171130 C95  0.1+  0.2+
    171102 926  0.1+  0.1-    171130 C95  0.1+  0.1+
    
